Location: Observatory
(49.4490°N, 2.6360°W)
Time: 14:30:13
(UTC+01:00)

CAS-4A - Pass Details

Date: 03 May 2025
Orbit: 371 x 397 km, 43.0° (Epoch: 15 May)

Event Time Altitude Azimuth Distance (km) Brightness Sun altitude
Exits shadow 03:40:23 20° 147° (SSE) 947 ? -16.6°
Drops below altitude 10° 03:42:06 10° 117° (ESE) 1,386 ? -16.4°
Sets 03:44:26 0° 102° (ESE) 2,246 ? -16.2°
